Hourly Data Report for October 01, 2017

All times are specified in Local Standard Time (LST). Add 1 hour to adjust for Daylight Saving Time where and when it is observed.

WINNIPEG A CS
MANITOBA

49°55'00.000" N
97°14'58.000" W
238.70 m
502S001
71849
XWG

Download Data

Hourly Data (October 2017)
Hourly Data Report for October 1, 2017
Temp Definition
°C
Dew Point Temp Definition
°C
Rel Hum Definition
%
Wind Dir Definition
10's deg

Wind Spd Definition
km/h
Visibility Definition
km
Stn Press Definition
kPa
Hmdx Definition


Wind Chill Definition


Weather Definition


TIME
00:00 16.8 9.7 63 16 30   97.98     LegendNANA
01:00 17.2 9.6 61 16 38   97.89     LegendNANA
02:00 15.8 10.8 72 16 38   97.83     LegendNANA
03:00 15.5 9.9 69 16 32   97.76     LegendNANA
04:00 14.6 9.7 73 15 24   97.73     LegendNANA
05:00 14.2 9.8 75 15 24   97.67     LegendNANA
06:00 13.6 9.7 77 14 24   97.62     LegendNANA
07:00 13.9 9.8 77 14 24   97.64     LegendNANA
08:00 15.0 10.0 72 14 24   97.65     LegendNANA
09:00 15.9 10.3 69 16 31   97.61     LegendNANA
10:00 17.0 11.4 70 16 29   97.61     LegendNANA
11:00 16.6 11.5 72 16 25   97.60     LegendNANA
12:00 15.0 11.8 81 16 30   97.59     LegendNANA
13:00 14.6 11.9 84 16 24   97.51     LegendNANA
14:00 14.6 12.0 84 14 20   97.42     LegendNANA
15:00 13.7 12.4 92 14 21   97.39     LegendNANA
16:00 13.5 12.7 94 14 19   97.36     LegendNANA
17:00 14.0 12.7 92 16 23   97.38     LegendNANA
18:00 14.3 12.9 91 16 18   97.41     LegendNANA
19:00 14.5 12.9 90 17 21   97.43     LegendNANA
20:00 14.5 12.8 89 15 18   97.41     LegendNANA
21:00 14.4 12.8 90 17 23   97.45     LegendNANA
22:00 14.3 12.9 92 16 20   97.43     LegendNANA
23:00 14.3 13.0 92 13 18   97.38     LegendNANA

Notes on Data Quality.

Legend

  • E = Estimated
  • M = Missing
  • NA = Not Available
  • ‡ = Partner data that is not subject to review by the National Climate Archives
Date modified: